TimeMST,TemperatureF,Dew PointF,Humidity,Sea Level PressureIn,VisibilityMPH,Wind Direction,Wind SpeedMPH,Gust SpeedMPH,PrecipitationIn,Events,Conditions,WindDirDegrees,DateUTC
12:53 AM,30.0,23.0,75,29.97,10.0,South,9.2,-,N/A,,Clear,170,2012-12-06 07:53:00
1:53 AM,30.9,23.0,72,29.97,10.0,South,6.9,-,N/A,,Clear,190,2012-12-06 08:53:00
2:53 AM,28.9,23.0,78,30.00,10.0,South,8.1,-,N/A,,Clear,170,2012-12-06 09:53:00
3:53 AM,27.0,21.0,78,30.01,10.0,South,9.2,-,N/A,,Clear,180,2012-12-06 10:53:00
4:53 AM,25.0,19.0,78,30.03,10.0,SSW,9.2,-,N/A,,Clear,210,2012-12-06 11:53:00
5:53 AM,25.0,19.0,78,30.02,10.0,SSW,9.2,-,N/A,,Clear,200,2012-12-06 12:53:00
6:53 AM,27.0,19.0,72,30.02,10.0,SSW,3.5,-,N/A,,Clear,200,2012-12-06 13:53:00
7:53 AM,28.0,19.0,69,30.02,10.0,West,3.5,-,N/A,,Clear,270,2012-12-06 14:53:00
8:53 AM,25.0,19.0,78,30.05,10.0,SW,6.9,-,N/A,,Clear,220,2012-12-06 15:53:00
9:53 AM,28.9,21.9,75,30.04,10.0,SW,3.5,-,N/A,,Clear,230,2012-12-06 16:53:00
10:53 AM,32.0,23.0,69,30.02,10.0,SW,3.5,-,N/A,,Clear,230,2012-12-06 17:53:00
11:53 AM,33.1,21.9,64,29.99,10.0,Calm,Calm,-,N/A,,Clear,0,2012-12-06 18:53:00
12:53 PM,36.0,23.0,59,29.95,10.0,NNW,3.5,-,N/A,,Clear,330,2012-12-06 19:53:00
1:53 PM,36.0,24.1,62,29.92,10.0,NNE,3.5,-,N/A,,Overcast,20,2012-12-06 20:53:00
2:53 PM,34.0,24.1,67,29.93,10.0,NNE,8.1,-,N/A,,Overcast,30,2012-12-06 21:53:00
3:53 PM,32.0,24.1,73,29.94,10.0,NE,3.5,-,N/A,,Overcast,40,2012-12-06 22:53:00
4:53 PM,30.9,24.1,76,29.96,10.0,Calm,Calm,-,N/A,,Overcast,0,2012-12-06 23:53:00
5:53 PM,30.0,23.0,75,29.95,10.0,NNE,5.8,-,N/A,,Overcast,20,2012-12-07 00:53:00
6:53 PM,28.0,24.1,85,29.96,10.0,NNE,4.6,-,N/A,,Overcast,20,2012-12-07 01:53:00
7:32 PM,26.6,24.8,93,29.87,9.0,NE,3.5,-,0.00,,Overcast,40,2012-12-07 02:32:00
7:53 PM,25.0,23.0,92,29.99,10.0,East,5.8,-,0.00,,Mostly Cloudy,80,2012-12-07 02:53:00
8:53 PM,28.0,23.0,81,29.99,10.0,South,6.9,-,N/A,,Clear,170,2012-12-07 03:53:00
9:53 PM,28.9,19.0,67,29.97,10.0,WSW,15.0,-,N/A,,Clear,240,2012-12-07 04:53:00
10:53 PM,28.0,19.0,69,29.97,10.0,SW,12.7,-,N/A,,Clear,230,2012-12-07 05:53:00
11:53 PM,28.0,17.1,63,29.96,10.0,WSW,16.1,-,N/A,,Clear,240,2012-12-07 06:53:00